| time (UTC) | temp F | wind direction | speed knots | gust knots | rain 1hr in | rain 24hr in | rain mn in | humidity % | barometer mb |
| 20260505070002 | 49 | 185 | 0.0 | 0.9 | 0.00 | 0.00 | 0.00 | 84 | 1010.7 |
| 20260505064502 | 49 | 133 | 0.0 | 1.7 | 0.00 | 0.00 | 0.00 | 83 | 1010.8 |
| 20260505063139 | 49 | 263 | 0.0 | 1.7 | 0.00 | 0.00 | 0.00 | 83 | 1010.8 |
| 20260505061638 | 49 | 113 | 0.0 | 1.7 | 0.00 | 0.00 | 0.00 | 82 | 1010.9 |
| 20260505054559 | 50 | 62 | 0.0 | 0.9 | 0.00 | 0.00 | 0.00 | 79 | 1010.9 |
| 20260505053054 | 50 | 19 | 0.0 | 1.7 | 0.00 | 0.00 | 0.00 | 78 | 1010.9 |
| 20260505051611 | 50 | 113 | 0.0 | 1.7 | 0.00 | 0.00 | 0.00 | 77 | 1010.9 |
| 20260505041550 | 52 | 225 | 0.0 | 1.7 | 0.00 | 0.00 | 0.00 | 72 | 1011.2 |
| 20260505040045 | 52 | 5 | 0.0 | 0.9 | 0.00 | 0.00 | 0.00 | 70 | 1011.2 |
| 20260505034544 | 52 | 259 | 0.0 | 2.6 | 0.00 | 0.00 | 0.00 | 69 | 1011.1 |
| 20260505033043 | 53 | 120 | 0.0 | 1.7 | 0.00 | 0.00 | 0.00 | 68 | 1011.0 |
| 20260505031550 | 53 | 233 | 0.0 | 1.7 | 0.00 | 0.00 | 0.00 | 66 | 1011.0 |
| 20260505030043 | 53 | 206 | 0.0 | 1.7 | 0.00 | 0.00 | 0.00 | 65 | 1011.2 |
| 20260505024548 | 54 | 272 | 0.0 | 2.6 | 0.00 | 0.00 | 0.00 | 63 | 1011.3 |
| 20260505023041 | 54 | 102 | 0.0 | 2.6 | 0.00 | 0.00 | 0.00 | 62 | 1011.2 |
| 20260505021542 | 55 | 196 | 0.0 | 3.5 | 0.00 | 0.00 | 0.00 | 60 | 1011.3 |
| 20260505020040 | 55 | 304 | 0.0 | 2.6 | 0.00 | 0.00 | 0.00 | 58 | 1011.2 |
| 20260505014540 | 56 | 166 | 0.0 | 2.6 | 0.00 | 0.00 | 0.00 | 56 | 1011.1 |
| 20260505013036 | 57 | 164 | 0.0 | 1.7 | 0.00 | 0.00 | 0.00 | 53 | 1011.0 |
| 20260505011537 | 57 | 249 | 0.9 | 5.2 | 0.00 | 0.00 | 0.00 | 52 | 1010.8 |
| 20260505010037 | 58 | 237 | 0.9 | 3.5 | 0.00 | 0.00 | 0.00 | 50 | 1010.5 |
| 20260505004535 | 58 | 242 | 1.7 | 5.2 | 0.00 | 0.00 | 0.00 | 50 | 1010.2 |
| 20260505003035 | 58 | 325 | 0.9 | 6.1 | 0.00 | 0.00 | 0.00 | 49 | 1009.9 |
| 20260505001534 | 59 | 141 | 0.0 | 4.3 | 0.00 | 0.00 | 0.00 | 49 | 1009.4 |
| 20260505000012 | 60 | 240 | 0.0 | 2.6 | 0.00 | 0.00 | 0.00 | 46 | 1009.2 |
| 20260504234511 | 62 | 272 | 1.7 | 6.1 | 0.00 | 0.00 | 0.00 | 43 | 1008.9 |
| 20260504233011 | 63 | 44 | 0.0 | 4.3 | 0.00 | 0.00 | 0.00 | 40 | 1008.6 |
| 20260504231510 | 64 | 241 | 1.7 | 5.2 | 0.00 | 0.00 | 0.00 | 38 | 1008.4 |
| 20260504230010 | 65 | 333 | 1.7 | 8.7 | 0.00 | 0.00 | 0.00 | 39 | 1008.2 |
| 20260504224509 | 65 | 36 | 0.9 | 5.2 | 0.00 | 0.00 | 0.00 | 38 | 1007.8 |
| 20260504223009 | 66 | 224 | 0.9 | 10.4 | 0.00 | 0.00 | 0.00 | 35 | 1007.7 |
| 20260504221510 | 67 | 308 | 2.6 | 6.1 | 0.00 | 0.00 | 0.00 | 34 | 1007.6 |
| 20260504220008 | 68 | 93 | 1.7 | 5.2 | 0.00 | 0.00 | 0.00 | 32 | 1007.3 |
| 20260504214507 | 68 | 96 | 2.6 | 7.0 | 0.00 | 0.00 | 0.00 | 31 | 1007.6 |
| 20260504213006 | 69 | 162 | 1.7 | 6.1 | 0.00 | 0.00 | 0.00 | 29 | 1007.3 |
| 20260504211506 | 70 | 210 | 1.7 | 5.2 | 0.00 | 0.00 | 0.00 | 27 | 1007.2 |
| 20260504210006 | 70 | 235 | 2.6 | 8.7 | 0.00 | 0.00 | 0.00 | 26 | 1007.2 |
| 20260504204505 | 71 | 155 | 1.7 | 4.3 | 0.00 | 0.00 | 0.00 | 26 | 1007.2 |
| 20260504203004 | 71 | 231 | 2.6 | 10.4 | 0.00 | 0.00 | 0.00 | 25 | 1007.1 |
| 20260504201503 | 72 | 90 | 1.7 | 7.8 | 0.00 | 0.00 | 0.00 | 25 | 1007.2 |
| 20260504200003 | 72 | 226 | 3.5 | 12.2 | 0.00 | 0.00 | 0.00 | 24 | 1007.2 |
| 20260504194505 | 72 | 214 | 1.7 | 13.0 | 0.00 | 0.00 | 0.00 | 24 | 1007.2 |
| 20260504193005 | 74 | 239 | 0.9 | 5.2 | 0.00 | 0.00 | 0.00 | 23 | 1007.2 |
| 20260504191503 | 74 | 316 | 1.7 | 10.4 | 0.00 | 0.00 | 0.00 | 22 | 1007.2 |
| 20260504190129 | 75 | 203 | 1.7 | 7.8 | 0.00 | 0.00 | 0.00 | 22 | 1007.4 |
| 20260504184559 | 74 | 205 | 2.6 | 10.4 | 0.00 | 0.00 | 0.00 | 23 | 1007.5 |
| 20260504183059 | 74 | 129 | 2.6 | 7.0 | 0.00 | 0.00 | 0.00 | 21 | 1007.7 |
| 20260504181557 | 74 | 310 | 2.6 | 9.6 | 0.00 | 0.00 | 0.00 | 23 | 1007.8 |
| 20260504180054 | 73 | 258 | 2.6 | 7.8 | 0.00 | 0.00 | 0.00 | 22 | 1008.1 |
| 20260504174559 | 73 | 181 | 2.6 | 8.7 | 0.00 | 0.00 | 0.00 | 22 | 1008.1 |
| 20260504173057 | 73 | 65 | 1.7 | 7.0 | 0.00 | 0.00 | 0.00 | 22 | 1008.0 |
| 20260504171550 | 72 | 190 | 3.5 | 11.3 | 0.00 | 0.00 | 0.00 | 22 | 1008.1 |
| 20260504081547 | 41 | 153 | 0.0 | 0.0 | 0.00 | 0.00 | 0.00 | 71 | 1010.9 |